{"data":{"norad_id":57438,"epoch":"2026-05-24T19:37:39.406080Z","epoch_age_seconds":87922,"freshness":"FRESH","line1":"1 57438U 23105J   26144.81781720  .00000595  00000+0  31161-4 0  9993","line2":"2 57438  42.9981 190.0051 0001577 268.2253  91.8418 15.27580547157228","mean_motion":15.27580547,"eccentricity":0.0001577,"inclination_deg":42.9981,"raan_deg":190.0051,"arg_perigee_deg":268.2253,"mean_anomaly_deg":91.8418,"bstar":3.1161e-5,"rev_number":15722,"period_min":94.26671495837,"perigee_km":481.96544933631,"apogee_km":484.12946691441,"semimajor_km":6861.1844581254,"source":"CELESTRAK","updated_at":"2026-05-25T13:38:18.319971Z"}}